Location: Unspecified
(51.0000°N, 12.0000°E)
Time: 17:05:58
(UTC+02:00)

OTV 5 (USA 277) - Pass Details

Date: 29 April 2019
Orbit: 310 x 325 km, 54.5° (Epoch: 08 May)

Event Time Altitude Azimuth Distance (km) Brightness Sun altitude
Rises 22:50:00 0° 284° (WNW) 2,039 ? -17.7°
Reaches altitude 10° 22:52:03 10° 293° (WNW) 1,209 ? -17.9°
Maximum altitude 22:54:34 36° 3° (N) 519 ? -18.1°
Enters shadow 22:55:23 28° 44° (NE) 627 ? -18.2°
